Location: Bismarck
(46.7731°N, 100.8200°W)
Time: 00:02:01
(UTC-05:00)

ISS - All Passes

Search period start: 30 August 2016 00:00
Search period end: 09 September 2016 00:00
Orbit: 402 x 406 km, 51.6° (Epoch: 29 August)

Date Brightness Start Highest point End Pass type
(mag) Time Alt. Az. Time Alt. Az. Time Alt. Az.
30 Aug - 08:52:36 10° SSW 08:55:29 29° SE 08:58:22 10° E daylight
30 Aug - 10:28:33 10° W 10:31:48 58° NNW 10:35:04 10° ENE daylight
30 Aug - 12:05:38 10° WNW 12:08:39 33° N 12:11:42 10° ENE daylight
30 Aug - 13:42:17 10° WNW 13:45:32 56° NNE 13:48:46 10° E daylight
30 Aug - 15:18:56 10° WNW 15:21:53 30° SW 15:24:49 10° SSE daylight
31 Aug - 08:01:01 10° S 08:03:14 17° SE 08:05:27 10° E daylight
31 Aug - 09:36:02 10° WSW 09:39:20 87° NNW 09:42:38 10° ENE daylight
31 Aug - 11:13:00 10° WNW 11:16:04 35° N 11:19:09 10° ENE daylight
31 Aug - 12:49:50 10° WNW 12:53:01 42° NNE 12:56:10 10° E daylight
31 Aug - 14:26:20 10° WNW 14:29:33 52° SSW 14:32:45 10° SE daylight
01 Sep - 08:43:41 10° SW 08:46:55 58° SSE 08:50:10 10° ENE daylight
01 Sep - 10:20:22 10° W 10:23:30 40° NNW 10:26:39 10° ENE daylight
01 Sep - 11:57:21 10° WNW 12:00:27 36° N 12:03:31 10° ENE daylight
01 Sep - 13:33:51 10° WNW 13:37:09 86° SSW 13:40:26 10° ESE daylight
01 Sep - 15:11:12 10° W 15:13:12 15° SW 15:15:12 10° S daylight
02 Sep - 07:51:33 10° SSW 07:54:34 34° SE 07:57:35 10° ENE daylight
02 Sep - 09:27:44 10° W 09:30:58 52° NNW 09:34:11 10° ENE daylight
02 Sep - 11:04:48 10° WNW 11:07:50 33° N 11:10:53 10° ENE daylight
02 Sep - 12:41:24 10° WNW 12:44:41 63° NNE 12:47:57 10° ESE daylight
02 Sep - 14:18:10 10° W 14:20:58 26° SW 14:23:44 10° SSE daylight
03 Sep - 06:59:47 10° S 07:02:16 20° SE 07:04:47 10° E daylight
03 Sep - 08:35:10 10° WSW 08:38:27 76° NNW 08:41:45 10° ENE daylight
03 Sep - 10:12:11 10° WNW 10:15:14 34° N 10:18:17 10° ENE daylight
03 Sep - 11:48:57 10° WNW 11:52:09 46° NNE 11:55:20 10° E daylight
03 Sep - 13:25:29 10° WNW 13:28:38 43° SW 13:31:47 10° SE daylight
04 Sep - 06:08:47 10° SSE 06:10:04 12° SE 06:11:20 10° ESE visible
04 Sep - 07:42:44 10° SW 07:46:00 69° SSE 07:49:17 10° ENE daylight
04 Sep - 09:19:32 10° W 09:22:38 38° N 09:25:46 10° ENE daylight
04 Sep - 10:56:28 10° WNW 10:59:35 37° N 11:02:41 10° E daylight
04 Sep - 12:32:57 10° WNW 12:36:14 74° SSW 12:39:31 10° SE daylight
04 Sep - 14:10:40 10° WSW 14:12:13 13° SW 14:13:45 10° SSW daylight
05 Sep - 06:50:30 10° SW 06:53:36 40° SE 06:56:44 10° ENE daylight
05 Sep - 08:26:52 10° W 08:30:04 47° NNW 08:33:17 10° ENE daylight
05 Sep - 10:03:56 10° WNW 10:06:58 34° N 10:10:01 10° ENE daylight
05 Sep - 11:40:29 10° WNW 11:43:47 72° NNE 11:47:03 10° ESE daylight
05 Sep - 13:17:23 10° W 13:19:58 22° SW 13:22:34 10° S daylight
06 Sep - 05:58:34 10° SSW 06:01:17 24° SE 06:04:00 10° E visible
06 Sep - 07:34:16 10° WSW 07:37:32 66° NNW 07:40:49 10° ENE daylight
06 Sep - 09:11:19 10° WNW 09:14:21 33° N 09:17:23 10° ENE daylight
06 Sep - 10:48:01 10° WNW 10:51:15 50° NNE 10:54:28 10° E daylight
06 Sep - 12:24:36 10° WNW 12:27:40 36° SW 12:30:43 10° SSE daylight
07 Sep - 05:07:12 10° S 05:09:02 14° SE 05:10:52 10° E visible
07 Sep - 06:41:46 10° WSW 06:45:02 81° SSE 06:48:21 10° ENE visible
07 Sep - 08:18:39 10° WNW 08:21:44 36° N 08:24:49 10° ENE daylight
07 Sep - 09:55:33 10° WNW 09:58:40 39° NNE 10:01:48 10° E daylight
07 Sep - 11:32:01 10° WNW 11:35:17 62° SSW 11:38:31 10° SE daylight
07 Sep - 13:10:30 10° WSW 13:11:10 10° SW 13:11:50 10° SW daylight
08 Sep - 05:49:26 10° SW 05:52:37 48° SSE 05:55:49 10° ENE visible
08 Sep - 07:25:58 10° W 07:29:08 43° NNW 07:32:19 10° ENE daylight
08 Sep - 09:03:00 10° WNW 09:06:03 34° N 09:09:07 10° ENE daylight
08 Sep - 10:39:31 10° WNW 10:42:49 82° NNE 10:46:06 10° ESE daylight
08 Sep - 12:16:36 10° W 12:18:56 18° SW 12:21:18 10° S daylight
